Tracking 29493 objects as of 9-Sep-2024
HD Live streaming from Space Station
objects crossing your sky now

FENGYUN 1C DEB

Track FENGYUN 1C DEB now!
10-day predictions


NORAD ID: 35240
Int'l Code: 1999-025DQY
Perigee: 804.4 km
Apogee: 881.7 km
Inclination: 99.3 °
Period: 101.6 minutes
Semi major axis: 7214 km
RCS: 0.0037 m2 (small)
Launch date: May 10, 1999
Source: People's Republic of China (PRC)
Launch site: Taiyaun Space Center, China (TSC)

Note: This is SATELLITE DEBRIS
Your satellite tracking list
Your tracking list is empty




NASA's NSSDC Master Catalog

Two Line Element Set (TLE):
1 35240U 99025DQY 24252.27789470  .00016686  00000-0  82104-2 0  9992
2 35240  99.3218 182.9530 0053563  16.9447 343.3499 14.16884758866264
Source of the keplerian elements: AFSPC